Regional Weather Roundup
Issued by NWS Wakefield, VA

Home | Current Version | Previous Version | Graphics & Text | Print | Product List | Glossary On
Versions: 1 2 3 4 5 6 7 8 9 10 11 12 13 14 15 16 17 18 19 20 21 22 23 24 25 26 27 28 29 30 31 32 33 34 35 36 37 38 39 40 41 42 43 44 45 46 47 48 49
000
ASUS41 KAKQ 271915
RWRAKQ

REGIONAL WEATHER ROUNDUP
NATIONAL WEATHER SERVICE WAKEFIELD VA
300 PM EDT THU AUG 27 2015

Note: "fair" indicates few or no clouds below 12,000 feet with no
significant weather and/or obstructions to visibility. * = Denotes
station may not report precipitation (e.g., rain,snow,etc.),
thunder or fog.

VAZ042-051-052>054-056-272000-
NORTHERN VIRGINIA

CITY           SKY/WX    TMP DP  RH WIND       PRES   REMARKS
WASH NATIONAL  PTSUNNY   79  54  41 VRB5      30.10F
DULLES         PTSUNNY   80  54  40 N8        30.11F
FORT BELVOIR   MOSUNNY   79  54  42 NW8       30.09F
QUANTICO       PTSUNNY   78  53  41 NW8       30.11F
FREDERICKSBRG* MOSUNNY   80  56  43 NW3       30.09F
STAFFORD*      MOSUNNY   79  55  43 W6        30.14F
WARRENTON      MOSUNNY   79  59  49 N8        30.10F
CULPEPER*      MOSUNNY   77  57  49 N5        30.11F
MANASSAS*      PTSUNNY   73  55  53 N7        30.11F
LEESBURG*      MOSUNNY   79  59  50 NW8       30.12F
WINCHESTER     CLOUDY    79  48  34 NW12      30.12F
FRONT ROYAL*   CLOUDY    77  52  41 N5        30.11F
LURAY*         CLOUDY    77  52  41 E5        30.11F
$$

VAZ048-049-060>072-079>083-272000-
CENTRAL AND SOUTH CENTRAL VIRGINIA

CITY           SKY/WX    TMP DP  RH WIND       PRES   REMARKS
RICHMOND       PTSUNNY   83  56  39 VRB7      30.08F
CHESTERFIELD*  MOCLDY    84  52  32 E6        30.09F
PETERSBURG*    MOSUNNY   83  62  50 N6        30.09F
HANOVER        MOSUNNY   81  56  42 VRB7      30.10F
TAPPAHANNOCK*  SUNNY     81  50  33 CALM      30.10F
QUINTON*       MOCLDY    79  60  52 CALM      30.08F
CHARLOTTSVILLE MOSUNNY   79  55  43 CALM      30.10F
GORDONSVILLE*  FAIR      80  56  44 CALM      30.09F
ORANGE*        PTSUNNY   82  55  39 CALM      30.11F
LOUISA*        MOSUNNY   81  55  41 W6        30.09F
BUMPASS*       FAIR      78  56  46 CALM      30.10F
FARMVILLE*     MOSUNNY   84  53  34 NE8       30.08F
CREWE*         MOCLDY   N/A N/A N/A CALM      30.09F
FORT PICKETT*  MOCLDY    80  59  49 NE5       30.10F
CHASE CITY*    MOCLDY    82  62  49 NE6       30.09F
CLARKSVILLE*   FAIR      81  61  50 E8        30.08F
SOUTH HILL*    PTSUNNY   79  62  56 NE7       30.14F
LAWRENCEVILLE* FAIR      79  63  57 NE3       30.08F
EMPORIA*       MOSUNNY   79  63  57 NE3       30.09F
$$

VAZ088>098-272000-
SOUTHEAST VIRGINIA

CITY           SKY/WX    TMP DP  RH WIND       PRES   REMARKS
NORFOLK        CLOUDY    79  58  48 N9        30.08F
VIRGINIA BEACH CLOUDY    80  59  48 NE13      30.07F
NORFOLK NAVAL  CLOUDY    80  60  50 NE13      30.09F
WEST POINT*    PTSUNNY   84  52  32 N7        30.10F
SALUDA*        FAIR      76  64  65 SE9G16    30.08F
NEWPORT NEWS   CLOUDY    81  59  47 NE10      30.09F
LANGLEY AFB    CLOUDY    79  60  52 NE10      30.08S
FORT EUSTIS    CLOUDY    81  59  47 VRB2      30.07F
WILLIAMSBURG*  PTSUNNY   88  64  45 NW3       30.09F
HR EXEC AP*      N/A     82  61  47 NE8       30.10S
FRANKLIN*      PTSUNNY   78  60  53 NE9       30.08F
WAKEFIELD      PTSUNNY   81  59  47 NE6       30.08F
$$

VAZ020-022-025-037-045-272000-
WEST CENTRAL AND SOUTHWEST VIRGINIA

CITY           SKY/WX    TMP DP  RH WIND       PRES   REMARKS
STAUNTON*      SUNNY     80  52  37 CALM      30.14F
WAYNESBORO*    MOCLDY    77  51  40 CALM      30.13F
HOT SPRINGS VA MOSUNNY   68  50  51 NW3       30.21S
LYNCHBURG      PTSUNNY   75  56  51 E5        30.13S
DANVILLE       MOSUNNY   82  59  45 VRB5      30.09F
SOUTH BOSTON*  MOCLDY    83  57  40 NE6       30.08F
MARTINSVILLE   SUNNY     82  56  40 CALM      30.13F
ROANOKE        MOSUNNY   77  56  48 E7        30.14F
BLACKSBURG     SUNNY     76  61  59 CALM      30.18F
DUBLIN*        CLOUDY    77  57  50 CALM      30.16F
MARION*        MOSUNNY   77  54  45 CALM      30.17F
HILLSVILLE*    PTSUNNY   73  57  57 CALM      30.16F
RICHLANDS*     FAIR      73  23  15 NW7       30.17S
WISE*          MOSUNNY   73  54  49 CALM      30.19
ABINGDON*      PTSUNNY   79  54  41 CALM      30.13F
$$

MDZ021>025-VAZ099-100-272000-
SOUTHERN MARYLAND AND THE DELMARVA PENINSULA

CITY           SKY/WX    TMP DP  RH WIND       PRES   REMARKS
PATUXENT RIVER PTSUNNY   78  59  51 NE7       30.09F
BAY BRIDGE APT   N/A     77  52  41 N6        30.10S
LEONARDTOWN    MOSUNNY   79  55  44 CALM      30.10F
DOVER          PTSUNNY   78  58  51 N9        30.07F
GEORGETOWN     PTSUNNY   81  55  40 W8        30.08F
EASTON         MOSUNNY   81  57  44 N9        30.13S
CAMBRIDGE      MOSUNNY   79  54  41 NW6       30.09S
SALISBURY      PTSUNNY   78  59  51 CALM      30.08F
OCEAN CITY     CLOUDY    77  60  55 VRB6      30.08S
WALLOPS ISLAND CLOUDY    79  58  48 VRB6      30.09S
ACCOMACK*      CLOUDY    75  61  60 N7        30.09S
$$

NCZ012>017-030>032-272000-
NORTH CENTRAL AND EASTERN NORTH CAROLINA

CITY           SKY/WX    TMP DP  RH WIND       PRES   REMARKS
ROANOKE RAPIDS FAIR      81  61  50 NE7       30.07F
RALEIGH        PTSUNNY   83  60  45 NE9       30.07F
ELIZABETH CITY CLOUDY    76  63  64 NE14      30.06F
AHOSKIE*       MOSUNNY   76  61  58 N7        30.08S
EDENTON*       CLOUDY    75  65  72 NE6       30.06F
CURRITUCK*     CLOUDY    78  58  50 NE8       30.07F
KILL DEVIL HLS CLOUDY    78  64  60 NE9G16    30.04F
MANTEO         CLOUDY    76  65  67 NE14      30.05S
CAPE HATTERAS  CLOUDY    78  70  76 NE13G23   30.01F
TARBORO*       CLOUDY    80  62  54 E6        30.08S
GOLDSBORO      CLOUDY    75  66  73 NE13      30.05S
WASHINGTON     CLOUDY    73  66  81 NE5       30.06S
GREENVILLE     CLOUDY    73  66  78 E7        30.08F
NEW BERN       CLOUDY    78  68  71 NE13      30.04S
WILMINGTON     CLOUDY    80  72  76 NE10      30.02S
$$

VAZ048-272000-
ELSEWHERE

CITY           SKY/WX    TMP DP  RH WIND       PRES   REMARKS
HARRISBURG PA  PTSUNNY   75  55  49 NW9       30.10F
BALTIMORE      MOSUNNY   79  53  40 NW7       30.09F
ANNAPOLIS      PTSUNNY   77  54  44 CALM      30.09F
ANDREWS AFB    MOSUNNY   81  51  35 N9        30.08F
PHILADELPHIA   PTSUNNY   79  51  37 NW15      30.07F
HENDERSON NC   MOSUNNY   80  56  44 NE7       30.09S
GREENSBORO     PTSUNNY   81  59  47 VRB6      30.09F
ROCKY MOUNT    CLOUDY    83  59  44 E8        30.07S
$$

VAZ100-272000-
MARINE

STATION/POSITION TIME  TEMP    WIND        PRES    WAVE   SWELL
                       AIR SEA DIR/SP/G            HT/PER HT/PER
                 (UTC) (F)     (DEG/KT/KT) (MB)    (FT/S) (FT/S)
BRANDYWINE LGT   1800   72 76  330/  6/  8 1019.1F
CAPE MAY NJ      1800   75 80  300/  5/  8 1018.5F
LEWES DE         1800   72 75  360/  7/  8 1018.9F
15NM E FENWICK I 1850   72 78  320/  8/ 12 1019.0S   2/10   2/10
OCEAN-CITY-INLET 1800   76 78   70/  6/ 10 1017.8F
WACHAPREAGUE VA  1800   79 78  320/  3/  7 1019.0F
THOMAS POINT MD  1900   73      50/  7     1019.4F
GOOSES REEF MD   1900   75 80   50/  6/  8 1020.0F
COVE POINT MD    1800   72      30/  8/ 12 1020.1F
SOLOMONS ISLAND  1800      81                N/A
BISHOPS HEAD MD  1800   75 77  270/  5/ 11 1018.3F
PINEY POINT MD   1800          280/  4/  4   N/A
POTOMAC MD       1900   75 80   20/ 12/ 14 1018.1F   0
CAMBRIDGE MD     1800   75 80  310/  8/ 13 1018.2F
LEWISETTA VA     1800   74 78  320/  4/  6 1018.9F
RAPPAHANNOCK LGT 1800           10/  8/ 10 1019.7F
STINGRAY PT      1900   75 80   50/ 10/ 12 1019.3F   1/ 2
YORK RVR RNG VA  1800   75      60/ 10/ 11 1018.6F
YORKTOWN VA      1800   76 80   60/  5/  8 1018.8F
JAMESTOWN VA     1900   78 83   40/  4/ 10   N/A
DOMINION TERM VA 1800   76      60/  7/ 10 1018.9F
KIPTOPEKE VA     1800      80  120/  3/  8   N/A
CAPE HENRY VA    1800   75      40/ 11/ 13   N/A
CHESAPEAKE LGHT  1800   74      40/ 13/ 14 1019.4F
WILLOUBY STN VA  1800   75      30/ 11/ 13 1019.9F
CAPE HENRY BUOY  1828      79                N/A     4/10   2/11
1ST LANDING BUOY 1900      79              1018.2F   2/ 4
CAPE CHARLES BUO 1826      79                N/A     3/11   2/11
OFFSHORE WE BUOY 1811      78                N/A     4/10   3/10
64NM E OF VA BCH 1850   77 81   40/ 14/ 17 1017.3F   4/ 5   3/ 9
DUCK PIER NC     1800   76 79   40/ 18/ 20 1017.2F
44100 DUCK FRF   1824      79                N/A     5/ 5   2/11
44056 DUCK FRF   1811      79                N/A     5/ 5   2/13
OREGON INLET NC  1800   77 79   30/ 16/ 20 1017.2F
HATTERAS NC      1800   78 81   40/ 14/ 20 1016.2F
DIAMOND SHLS NC  1850   77 82  100/ 12/ 16 1016.3R   5/ 9   3/ 9


USA.gov is the U.S. government's official web portal to all federal, state and local government web resources and services.